Epoch 2008 Feb. 24.0 TT = JDT 2454520.5 T 2008 Feb. 13.77910 TT Rudenko q 2.6932905 (2000.0) P Q n 0.07832162 Peri. 277.72169 +0.13677935 -0.98886425 a 5.4102202 Node 164.05374 +0.97203491 +0.12257264 e 0.5021847 Incl. 12.32457 +0.19089144 +0.08440047 P 12.6 From 102 observations 2007 Nov. 3-2020 Oct. 17, mean residual 0".9.
m1 = 12.5 + 5 logΔ + 10.0 log r